Weather History for Unalakleet, AK

Change the Weather History Date:

Sunday, February 3, 2013

  Actual Average Record
Temperature  
Mean Temperature 18 °F -  
Max Temperature 23 °F 13 °F 43 °F (1982)
Min Temperature 12 °F -2 °F -45 °F (1993)
Degree Days  
Heating Degree Days 48    
Moisture  
Dew Point 11 °F    
Average Humidity 72    
Maximum Humidity 86    
Minimum Humidity 59    
Precipitation  
Precipitation 0.00 in - - ()
Sea Level Pressure  
Sea Level Pressure 29.40 in    
Wind  
Wind Speed 16 mph (East)    
Max Wind Speed 28 mph    
Max Gust Speed 33 mph    
Visibility 10 miles    
Events      
Averages and records for this station are not official NWS values.
T = Trace of Precipitation, MM = Missing Value Source: NWS Daily Summary

Daily Weather History Graph

Daily Weather History Graph

Search for Another Location

Airport:

Trip Planner

Search our weather history database for the weather conditions in past years. The results will help you decide how hot, cold, wet, or windy it might be!

Date:

Astronomy

Feb. 03, 2013 Rise Set
Actual Time 10:13 AM AKST 5:41 PM AKST
Civil Twilight 9:18 AM AKST 6:36 PM AKST
Nautical Twilight 8:21 AM AKST 7:34 PM AKST
Astronomical Twilight 7:26 AM AKST 8:29 PM AKST
Moon 4:09 AM AKST (2/3) 11:07 AM AKST (2/3)
Length of Visible Light 9h 17m
Length of Day
7h 27m
Waning Gibbous, 47% of the Moon is Illuminated
Feb 3
Waning Gibbous
Feb 9
New
Feb 17
First Quarter
Feb 25
Full
Mar 4
Last Quarter

Hourly Weather History & Observations

Time (AKST) Temp. Windchill Dew Point Humidity Pressure Visibility Wind Dir Wind Speed Gust Speed Precip Events Conditions
12:16 AM 21.2 °F 5.2 °F 14.0 °F 74% 29.42 in 10.0 mi ENE 21.9 mph 28.8 mph N/A   Overcast
12:36 AM 21.2 °F 4.9 °F 14.0 °F 74% 29.42 in 10.0 mi East 23.0 mph - N/A   Overcast
12:56 AM 21.2 °F 5.2 °F 15.8 °F 80% 29.42 in 10.0 mi East 21.9 mph - N/A   Overcast
1:16 AM 21.2 °F 4.9 °F 14.0 °F 74% 29.41 in 10.0 mi East 23.0 mph 31.1 mph N/A   Overcast
1:36 AM 19.4 °F 2.1 °F 14.0 °F 80% 29.41 in 10.0 mi East 24.2 mph - N/A   Overcast
1:56 AM 19.4 °F 3.2 °F 14.0 °F 80% 29.41 in 10.0 mi ENE 20.7 mph - N/A   Overcast
2:16 AM 19.4 °F 2.5 °F 14.0 °F 80% 29.41 in 10.0 mi East 23.0 mph 29.9 mph N/A   Overcast
2:36 AM 19.4 °F 1.4 °F 12.2 °F 74% 29.39 in 10.0 mi East 26.5 mph - N/A   Overcast
3:16 AM 21.2 °F 3.9 °F 14.0 °F 74% 29.39 in 10.0 mi East 26.5 mph - N/A   Overcast
3:36 AM 21.2 °F 3.5 °F 14.0 °F 74% 29.38 in 10.0 mi East 27.6 mph 33.4 mph N/A   Overcast
3:56 AM 21.2 °F 4.2 °F 14.0 °F 74% 29.38 in 10.0 mi East 25.3 mph - N/A   Overcast
4:16 AM 21.2 °F 4.5 °F 12.2 °F 68% 29.38 in 10.0 mi East 24.2 mph - N/A   Overcast
4:36 AM 21.2 °F 5.6 °F 12.2 °F 68% 29.38 in 10.0 mi ENE 20.7 mph - N/A   Overcast
4:56 AM 21.2 °F 5.2 °F 12.2 °F 68% 29.37 in 10.0 mi ENE 21.9 mph - N/A   Overcast
5:16 AM 21.2 °F 5.2 °F 12.2 °F 68% 29.36 in 10.0 mi ENE 21.9 mph - N/A   Overcast
5:36 AM 21.2 °F 5.6 °F 12.2 °F 68% 29.36 in 10.0 mi ENE 20.7 mph 26.5 mph N/A   Overcast
5:56 AM 21.2 °F 5.6 °F 12.2 °F 68% 29.36 in 10.0 mi East 20.7 mph - N/A   Overcast
6:16 AM 21.2 °F 7.3 °F 12.2 °F 68% 29.36 in 10.0 mi East 16.1 mph - N/A   Overcast
6:36 AM 21.2 °F 5.6 °F 12.2 °F 68% 29.35 in 10.0 mi East 20.7 mph - N/A   Overcast
6:56 AM 21.2 °F 5.6 °F 12.2 °F 68% 29.35 in 10.0 mi East 20.7 mph - N/A   Overcast
7:16 AM 21.2 °F 6.4 °F 12.2 °F 68% 29.35 in 10.0 mi East 18.4 mph - N/A   Overcast
7:36 AM 21.2 °F 10.1 °F 12.2 °F 68% 29.37 in 10.0 mi East 10.4 mph - N/A   Overcast
7:56 AM 21.2 °F 9.5 °F 12.2 °F 68% 29.37 in 10.0 mi East 11.5 mph - N/A   Overcast
8:16 AM 21.2 °F 12.6 °F 12.2 °F 68% 29.38 in 10.0 mi East 6.9 mph - N/A   Overcast
8:36 AM 19.4 °F 11.5 °F 12.2 °F 74% 29.38 in 10.0 mi ESE 5.8 mph - N/A   Overcast
8:56 AM 19.4 °F 8.6 °F 12.2 °F 74% 29.38 in 10.0 mi SE 9.2 mph - N/A   Scattered Clouds
9:16 AM 19.4 °F 11.5 °F 10.4 °F 68% 29.39 in 10.0 mi ESE 5.8 mph - N/A   Scattered Clouds
9:36 AM 19.4 °F 14.3 °F 10.4 °F 68% 29.38 in 10.0 mi East 3.5 mph - N/A   Mostly Cloudy
9:56 AM 19.4 °F 6.6 °F 12.2 °F 74% 29.38 in 10.0 mi ESE 12.7 mph - N/A   Scattered Clouds
10:16 AM 19.4 °F 5.5 °F 12.2 °F 74% 29.38 in 10.0 mi ESE 15.0 mph - N/A   Partly Cloudy
10:36 AM 17.6 °F 2.2 °F 10.4 °F 73% 29.37 in 10.0 mi East 17.3 mph - N/A   Clear
10:56 AM 17.6 °F 2.7 °F 10.4 °F 73% 29.38 in 10.0 mi East 16.1 mph - N/A   Clear
11:16 AM 17.6 °F 3.7 °F 8.6 °F 68% 29.38 in 10.0 mi East 13.8 mph - N/A   Clear
11:36 AM 17.6 °F 5.0 °F 10.4 °F 73% 29.38 in 10.0 mi East 11.5 mph - N/A   Clear
11:56 AM 19.4 °F 10.4 °F 10.4 °F 68% 29.38 in 10.0 mi East 6.9 mph - N/A   Clear
12:16 PM 19.4 °F 12.8 °F 10.4 °F 68% 29.39 in 10.0 mi ENE 4.6 mph - N/A   Clear
12:36 PM 19.4 °F - 10.4 °F 68% 29.39 in 10.0 mi Calm Calm - N/A   Clear
12:56 PM 21.2 °F - 10.4 °F 63% 29.39 in 10.0 mi Calm Calm - N/A   Clear
1:16 PM 19.4 °F - 10.4 °F 68% 29.39 in 10.0 mi Calm Calm - N/A   Clear
1:36 PM 21.2 °F - 10.4 °F 63% 29.39 in 10.0 mi Calm Calm - N/A   Clear
1:56 PM 23.0 °F 18.4 °F 10.4 °F 59% 29.39 in 10.0 mi East 3.5 mph - N/A   Clear
2:16 PM 21.2 °F 16.4 °F 14.0 °F 74% 29.38 in 10.0 mi NW 3.5 mph - N/A   Clear
2:36 PM 19.4 °F - 14.0 °F 80% 29.38 in 10.0 mi Calm Calm - N/A   Clear
2:56 PM 19.4 °F - 15.8 °F 86% 29.38 in 10.0 mi Calm Calm - N/A   Clear
3:16 PM 21.2 °F 16.4 °F 12.2 °F 68% 29.38 in 10.0 mi NNE 3.5 mph - N/A   Clear
3:36 PM 19.4 °F - 10.4 °F 68% 29.38 in 10.0 mi Calm Calm - N/A   Clear
3:56 PM 17.6 °F 12.3 °F 8.6 °F 68% 29.39 in 10.0 mi SSE 3.5 mph - N/A   Clear
4:16 PM 17.6 °F - 8.6 °F 68% 29.39 in 10.0 mi Calm Calm - N/A   Clear
4:36 PM 15.8 °F 8.6 °F 8.6 °F 73% 29.40 in 10.0 mi SE 4.6 mph - N/A   Clear
4:56 PM 19.4 °F 11.5 °F 12.2 °F 74% 29.40 in 10.0 mi ESE 5.8 mph - N/A   Clear
5:16 PM 19.4 °F 12.8 °F 10.4 °F 68% 29.40 in 10.0 mi ESE 4.6 mph - N/A   Clear
5:36 PM 17.6 °F 6.4 °F 8.6 °F 68% 29.40 in 10.0 mi East 9.2 mph - N/A   Clear
5:56 PM 17.6 °F 8.2 °F 8.6 °F 68% 29.41 in 10.0 mi NE 6.9 mph - N/A   Clear
6:16 PM 17.6 °F 6.4 °F 6.8 °F 63% 29.42 in 10.0 mi ENE 9.2 mph - N/A   Clear
6:36 PM 17.6 °F 5.0 °F 8.6 °F 68% 29.42 in 10.0 mi ENE 11.5 mph - N/A   Clear
6:56 PM 15.8 °F 6.1 °F 8.6 °F 73% 29.42 in 10.0 mi East 6.9 mph - N/A   Clear
7:16 PM 15.8 °F 6.1 °F 6.8 °F 68% 29.43 in 10.0 mi East 6.9 mph - N/A   Clear
7:36 PM 15.8 °F 4.2 °F 8.6 °F 73% 29.43 in 10.0 mi East 9.2 mph - N/A   Clear
7:56 PM 15.8 °F 2.7 °F 8.6 °F 73% 29.43 in 10.0 mi East 11.5 mph - N/A   Clear
8:16 PM 17.6 °F 3.7 °F 8.6 °F 68% 29.43 in 10.0 mi East 13.8 mph - N/A   Clear
8:36 PM 17.6 °F 2.7 °F 8.6 °F 68% 29.43 in 10.0 mi East 16.1 mph - N/A   Clear
8:56 PM 15.8 °F 0.3 °F 8.6 °F 73% 29.43 in 10.0 mi East 16.1 mph - N/A   Clear
9:16 PM 15.8 °F -0.6 °F 8.6 °F 73% 29.44 in 10.0 mi East 18.4 mph - N/A   Clear
9:36 PM 15.8 °F -1.5 °F 6.8 °F 68% 29.44 in 10.0 mi East 20.7 mph - N/A   Clear
9:56 PM 15.8 °F -0.2 °F 6.8 °F 68% 29.45 in 10.0 mi East 17.3 mph - N/A   Clear
10:16 PM 12.2 °F -4.3 °F 6.8 °F 79% 29.45 in 10.0 mi East 16.1 mph - N/A   Clear
10:36 PM 12.2 °F -3.1 °F 6.8 °F 79% 29.46 in 10.0 mi East 13.8 mph - N/A   Clear
10:56 PM 12.2 °F -3.1 °F 6.8 °F 79% 29.46 in 10.0 mi ENE 13.8 mph - N/A   Clear
11:16 PM 12.2 °F -3.1 °F 6.8 °F 79% 29.47 in 10.0 mi East 13.8 mph - N/A   Clear
11:36 PM 12.2 °F -3.7 °F 8.6 °F 85% 29.47 in 10.0 mi East 15.0 mph - N/A   Clear
11:56 PM 12.2 °F -3.7 °F 6.8 °F 79% 29.47 in 10.0 mi East 15.0 mph - N/A   Clear